リニア彗星

214P/LINEAR (2015)

English version
Home page
Updated on May 16, 2015

---------------------------------------------------------------------

・ プロフィール

・ 軌道要素

Epoch 2015 Oct. 25.0 TT = JDT 2457320.5
T 2015 Nov. 12.70707 TT                                 MPCW
q   1.8515145            (2000.0)            P               Q
n   0.14352789     Peri.  190.24656     -0.99839689     -0.01894358
a   3.6128106      Node   348.26650     +0.04796012     -0.78356347
e   0.4875141      Incl.   15.20519     -0.03005781     -0.62102288
P   6.87
From 121 observations 2002 Jan. 15-2009 May 3, mean residual 0".6.

・ 光度変化

        m1 = 15.5 + 5 logΔ + 10.0 log r

---------------------------------------------------------------------

軌道要素はM.P.E.C. 2015-E14に掲載されたものです。
光度グラフはComet for Windowsで作成したものです。

---------------------------------------------------------------------

Copyright(C) Seiichi Yoshida (comet@aerith.net). All rights reserved.